Simultaneous Nadir Overpasses (SNOs) Predictions

Prediction of SNOs between GOES-14 and NOAA-20 Satellite Orbit:

Table of predicted SNOs for the next 14.0 days since TLE Epoch: 1/3/2020
Index Date Time (GOES-14) GOES-14 Lat,Lon NOAA-20 Lat,Lon Distance(km) Time Diff (sec)
1 01/03/2020 20:34:41 0.02,-104.04 0.00,-107.46 380.07 0
2 01/04/2020 20:17:04 0.01,-104.04 0.27,-102.76 145.51 80
3 01/06/2020 08:38:54 -0.02,-104.31 0.81,-108.05 426.55 80
4 01/07/2020 08:17:30 -0.01,-104.31 -0.17,-103.52 89.57 80
5 01/09/2020 20:20:43 0.00,-104.04 -0.05,-104.28 28.18 80
6 01/10/2020 20:04:39 -0.00,-104.04 0.99, -99.76 488.08 80
7 01/12/2020 08:26:29 -0.00,-104.30 0.16,-105.04 84.26 80
8 01/13/2020 08:05:04 0.00,-104.29 -0.83,-100.50 431.53 80
9 01/14/2020 20:27:01 0.00,-104.02 -0.37,-105.81 202.99 80
10 01/15/2020 20:10:57 0.00,-104.02 0.61,-101.27 313.21 80
11 01/17/2020 08:30:07 -0.01,-104.29 0.47,-106.56 258.35 80




NCC Satellite Simultaneous Nadir Overpasses (SNOs) Prediction Service
